• In Uzbekistan
  • List of Countries
  • For 7 days
  • Water Temperature
  • Satellite Maps
  • Weather Map
  • Weather Widgets
  • user-avatar
    Login

    Hourly Weather Kunming

    Today, 20 September, Thursday

    Time Temperature Precipitation Wind Pressure Humidity
    00:00 +15°C° 0.1 mm 1 mps 593 mmHg 94%
    01:00 +15°C° 0.1 mm 1 mps 592 mmHg 94%
    02:00 +15°C° 0 mm 1 mps 592 mmHg 95%
    03:00 +13°C° 0 mm 0 mps 592 mmHg 95%
    04:00 +13°C° 0 mm 0 mps 592 mmHg 96%
    05:00 +14°C° 0 mm 0 mps 592 mmHg 95%
    06:00 +14°C° 0 mm 0 mps 593 mmHg 94%
    07:00 +16°C° 0 mm 1 mps 594 mmHg 92%
    08:00 +19°C° 0 mm 1 mps 594 mmHg 86%
    09:00 +20°C° 0 mm 1 mps 594 mmHg 80%
    10:00 +20°C° 0 mm 2 mps 595 mmHg 74%
    11:00 +21°C° 0.1 mm 2 mps 595 mmHg 68%
    12:00 +24°C° 0.1 mm 2 mps 595 mmHg 62%
    13:00 +25°C° 0.1 mm 2 mps 595 mmHg 56%
    14:00 +25°C° 0 mm 3 mps 594 mmHg 56%
    15:00 +25°C° 0 mm 3 mps 594 mmHg 56%
    16:00 +25°C° 0 mm 3 mps 593 mmHg 56%
    17:00 +23°C° 0 mm 2 mps 593 mmHg 65%
    18:00 +20°C° 0 mm 2 mps 592 mmHg 73%
    19:00 +19°C° 0 mm 1 mps 592 mmHg 81%
    20:00 +19°C° 0 mm 1 mps 592 mmHg 83%
    21:00 +18°C° 0 mm 1 mps 592 mmHg 86%
    22:00 +16°C° 0 mm 1 mps 593 mmHg 88%
    23:00 +16°C° 0 mm 1 mps 592 mmHg 90%

    Tomorrow, 21 September, Friday

    Time Temperature Precipitation Wind Pressure Humidity
    00:00 +16°C° 0 mm 1 mps 592 mmHg 91%
    01:00 +15°C° 0 mm 1 mps 592 mmHg 92%
    02:00 +15°C° 0 mm 1 mps 592 mmHg 93%
    03:00 +14°C° 0 mm 0 mps 592 mmHg 93%
    04:00 +13°C° 0 mm 0 mps 591 mmHg 94%
    05:00 +14°C° 0 mm 0 mps 592 mmHg 93%
    06:00 +14°C° 0 mm 0 mps 592 mmHg 92%
    07:00 +15°C° 0 mm 0 mps 593 mmHg 90%
    08:00 +19°C° 0 mm 1 mps 594 mmHg 82%
    09:00 +21°C° 0 mm 1 mps 595 mmHg 73%
    10:00 +23°C° 0 mm 2 mps 596 mmHg 64%
    11:00 +24°C° 0.1 mm 2 mps 596 mmHg 61%
    12:00 +25°C° 0.1 mm 2 mps 595 mmHg 57%
    13:00 +26°C° 0.1 mm 2 mps 595 mmHg 53%
    14:00 +26°C° 0.2 mm 3 mps 595 mmHg 54%
    15:00 +26°C° 0.2 mm 3 mps 594 mmHg 55%
    16:00 +26°C° 0.2 mm 3 mps 594 mmHg 56%
    17:00 +24°C° 0.2 mm 2 mps 593 mmHg 63%
    18:00 +21°C° 0.2 mm 2 mps 593 mmHg 71%
    19:00 +20°C° 0.2 mm 1 mps 592 mmHg 78%
    20:00 +19°C° 0.1 mm 1 mps 593 mmHg 80%
    21:00 +19°C° 0.1 mm 1 mps 593 mmHg 82%
    22:00 +18°C° 0.1 mm 1 mps 593 mmHg 84%
    23:00 +18°C° 0.1 mm 1 mps 593 mmHg 85%

    Day after tomorrow, 22 September, Saturday

    Time Temperature Precipitation Wind Pressure Humidity
    00:00 +18°C° 0.1 mm 1 mps 593 mmHg 87%
    01:00 +18°C° 0.1 mm 1 mps 593 mmHg 88%
    02:00 +16°C° 0.3 mm 1 mps 593 mmHg 90%
    03:00 +16°C° 0.3 mm 1 mps 592 mmHg 91%
    04:00 +15°C° 0.3 mm 1 mps 592 mmHg 93%
    05:00 +16°C° 0.3 mm 1 mps 593 mmHg 92%
    06:00 +16°C° 0.3 mm 1 mps 593 mmHg 91%
    07:00 +18°C° 0.3 mm 1 mps 593 mmHg 90%
    08:00 +19°C° 0.3 mm 1 mps 594 mmHg 83%
    09:00 +21°C° 0.3 mm 1 mps 595 mmHg 76%
    10:00 +23°C° 0.3 mm 2 mps 596 mmHg 70%
    11:00 +24°C° 0.6 mm 2 mps 596 mmHg 66%
    12:00 +25°C° 0.6 mm 2 mps 596 mmHg 62%
    13:00 +26°C° 0.6 mm 2 mps 595 mmHg 58%
    14:00 +25°C° 0.7 mm 2 mps 595 mmHg 60%
    15:00 +25°C° 0.7 mm 3 mps 594 mmHg 62%
    16:00 +25°C° 0.7 mm 3 mps 593 mmHg 63%
    17:00 +23°C° 0.5 mm 2 mps 593 mmHg 69%
    18:00 +20°C° 0.5 mm 2 mps 593 mmHg 75%
    19:00 +19°C° 0.5 mm 1 mps 593 mmHg 81%
    20:00 +19°C° 0.8 mm 1 mps 593 mmHg 84%
    21:00 +19°C° 0.8 mm 1 mps 594 mmHg 86%
    22:00 +18°C° 0.8 mm 1 mps 594 mmHg 89%
    23:00 +18°C° 0.8 mm 1 mps 594 mmHg 90%

    23 September, Sunday

    Time Temperature Precipitation Wind Pressure Humidity
    00:00 +18°C° 0.8 mm 1 mps 594 mmHg 90%
    01:00 +18°C° 0.8 mm 1 mps 593 mmHg 91%
    02:00 +16°C° 0.5 mm 1 mps 593 mmHg 91%
    03:00 +16°C° 0.5 mm 1 mps 593 mmHg 92%
    04:00 +16°C° 0.5 mm 1 mps 593 mmHg 92%
    05:00 +16°C° 0.2 mm 1 mps 593 mmHg 92%
    06:00 +16°C° 0.2 mm 1 mps 593 mmHg 91%
    07:00 +16°C° 0.2 mm 1 mps 594 mmHg 91%
    08:00 +18°C° 0.3 mm 1 mps 594 mmHg 85%
    09:00 +20°C° 0.3 mm 1 mps 595 mmHg 80%
    10:00 +21°C° 0.3 mm 1 mps 596 mmHg 75%
    11:00 +20°C° 0.7 mm 2 mps 595 mmHg 74%
    12:00 +21°C° 0.7 mm 2 mps 595 mmHg 72%
    13:00 +21°C° 0.7 mm 2 mps 595 mmHg 71%
    14:00 +21°C° 1.1 mm 2 mps 594 mmHg 74%
    15:00 +21°C° 1.1 mm 2 mps 593 mmHg 76%
    16:00 +21°C° 1.1 mm 1 mps 592 mmHg 79%
    17:00 +20°C° 0.4 mm 1 mps 592 mmHg 82%
    18:00 +19°C° 0.4 mm 1 mps 592 mmHg 86%
    19:00 +18°C° 0.4 mm 1 mps 592 mmHg 89%
    20:00 +16°C° 0.1 mm 1 mps 592 mmHg 90%
    21:00 +16°C° 0.1 mm 1 mps 592 mmHg 91%
    22:00 +15°C° 0.1 mm 0 mps 593 mmHg 91%
    23:00 +16°C° 0.1 mm 1 mps 592 mmHg 92%

    24 September, Monday

    Time Temperature Precipitation Wind Pressure Humidity
    00:00 +16°C° 0.1 mm 1 mps 592 mmHg 92%
    01:00 +16°C° 0.1 mm 1 mps 592 mmHg 92%
    02:00 +15°C° 0 mm 1 mps 591 mmHg 93%
    03:00 +15°C° 0 mm 1 mps 591 mmHg 94%
    04:00 +15°C° 0 mm 1 mps 591 mmHg 94%
    05:00 +15°C° 0 mm 1 mps 591 mmHg 94%
    06:00 +15°C° 0 mm 1 mps 591 mmHg 94%
    07:00 +15°C° 0 mm 1 mps 592 mmHg 93%
    08:00 +18°C° 0 mm 1 mps 592 mmHg 89%
    09:00 +18°C° 0 mm 2 mps 593 mmHg 84%
    10:00 +19°C° 0 mm 2 mps 593 mmHg 79%
    11:00 +20°C° 0.1 mm 2 mps 593 mmHg 74%
    12:00 +21°C° 0.1 mm 3 mps 593 mmHg 70%
    13:00 +22°C° 0.1 mm 3 mps 593 mmHg 65%
    14:00 +22°C° 0.5 mm 3 mps 592 mmHg 67%
    15:00 +22°C° 0.5 mm 3 mps 591 mmHg 69%
    16:00 +23°C° 0.5 mm 2 mps 591 mmHg 70%
    17:00 +20°C° 0.7 mm 2 mps 591 mmHg 76%
    18:00 +20°C° 0.7 mm 1 mps 591 mmHg 82%
    19:00 +18°C° 0.7 mm 1 mps 590 mmHg 89%
    20:00 +18°C° 0.6 mm 1 mps 591 mmHg 90%
    21:00 +16°C° 0.6 mm 1 mps 591 mmHg 91%
    22:00 +16°C° 0.6 mm 1 mps 591 mmHg 92%
    23:00 +16°C° 0.4 mm 1 mps 591 mmHg 93%

    25 September, Tuesday

    Time Temperature Precipitation Wind Pressure Humidity
    00:00 +16°C° 0.4 mm 1 mps 591 mmHg 94%
    01:00 +15°C° 0.4 mm 1 mps 590 mmHg 95%
    02:00 +15°C° 0.2 mm 1 mps 590 mmHg 96%
    03:00 +15°C° 0.2 mm 1 mps 590 mmHg 96%
    04:00 +15°C° 0.2 mm 1 mps 590 mmHg 96%
    05:00 +15°C° 0 mm 1 mps 590 mmHg 95%
    06:00 +16°C° 0 mm 1 mps 590 mmHg 95%
    07:00 +16°C° 0 mm 1 mps 591 mmHg 94%
    08:00 +18°C° 0.1 mm 1 mps 591 mmHg 89%
    09:00 +18°C° 0.1 mm 2 mps 592 mmHg 85%
    10:00 +19°C° 0.1 mm 2 mps 592 mmHg 80%
    11:00 +20°C° 0.3 mm 2 mps 592 mmHg 76%
    12:00 +21°C° 0.3 mm 2 mps 592 mmHg 72%
    13:00 +23°C° 0.3 mm 2 mps 592 mmHg 68%
    14:00 +23°C° 0.8 mm 1 mps 591 mmHg 69%
    15:00 +23°C° 0.8 mm 1 mps 591 mmHg 70%
    16:00 +23°C° 0.8 mm 1 mps 590 mmHg 71%
    17:00 +21°C° 1 mm 1 mps 590 mmHg 76%
    18:00 +20°C° 1 mm 1 mps 590 mmHg 82%
    19:00 +18°C° 1 mm 1 mps 589 mmHg 88%
    20:00 +18°C° 0.9 mm 1 mps 590 mmHg 89%
    21:00 +18°C° 0.9 mm 1 mps 590 mmHg 90%
    22:00 +16°C° 0.9 mm 1 mps 590 mmHg 92%
    23:00 +16°C° 0.8 mm 1 mps 590 mmHg 93%
    Show more